Location: Unspecified
(58.7730°N, 5.8460°E)
Time: 10:52:45
(UTC+02:00)

Cosmos 1674 - Visible Passes

Search period start: 18 August 2017 00:00
Search period end: 28 August 2017 00:00
Orbit: 499 x 521 km, 82.5° (Epoch: 17 August)

Date Brightness Start Highest point End Pass type
(mag) Time Alt. Az. Time Alt. Az. Time Alt. Az.
18 Aug 4.9 00:43:37 10° NNE 00:46:27 19° ENE 00:48:50 12° E visible
18 Aug 2.7 02:18:39 10° NNW 02:22:33 74° W 02:23:43 43° S visible
18 Aug 5.0 03:56:00 10° WNW 03:57:26 12° W 03:58:36 11° W visible
19 Aug 5.1 00:27:07 10° NNE 00:29:41 17° NE 00:32:05 11° E visible
19 Aug 2.6 02:01:59 10° NNW 02:05:53 88° WSW 02:06:58 46° S visible
19 Aug 4.8 03:38:52 10° NW 03:40:53 14° W 03:41:51 13° W visible
20 Aug 5.2 00:10:40 10° NNE 00:12:54 15° NE 00:15:06 10° E visible
20 Aug 2.7 01:45:19 10° NNW 01:49:13 78° ENE 01:50:15 47° SSE visible
20 Aug 4.6 03:21:53 10° NW 03:24:20 16° W 03:25:08 15° W visible
20 Aug 5.2 23:54:18 10° NNE 23:56:06 13° NE 23:57:54 10° E visible
21 Aug 2.9 01:28:40 10° N 01:32:33 65° ENE 01:33:31 45° SE visible
21 Aug 4.5 03:04:58 10° NW 03:07:46 19° W 03:08:25 18° W visible
21 Aug 5.3 23:38:05 10° NNE 23:39:17 11° NE 23:40:30 10° ENE visible
22 Aug 3.1 01:12:01 10° N 01:15:51 54° ENE 01:16:49 41° ESE visible
22 Aug 4.3 02:48:08 10° NW 02:51:11 22° W 02:51:42 22° W visible
23 Aug 3.4 00:55:23 10° N 00:59:09 45° ENE 01:00:07 36° ESE visible
23 Aug 4.0 02:31:20 10° NNW 02:34:35 26° W 02:35:00 25° W visible
24 Aug 3.7 00:38:46 10° N 00:42:26 38° ENE 00:43:26 32° ESE visible
24 Aug 3.8 02:14:32 10° NNW 02:17:59 31° W 02:18:19 30° WSW visible
25 Aug 3.9 00:22:09 10° N 00:25:42 32° ENE 00:26:45 28° E visible
25 Aug 3.6 01:57:47 10° NNW 02:01:22 36° W 02:01:38 36° WSW visible
26 Aug 4.1 00:05:34 10° N 00:08:58 28° ENE 00:10:04 24° E visible
26 Aug 3.3 01:41:03 10° NNW 01:44:45 43° W 01:44:58 43° WSW visible
26 Aug 4.3 23:49:00 10° N 23:52:13 24° ENE 23:53:25 21° E visible
27 Aug 3.0 01:24:19 10° NNW 01:28:07 52° W 01:28:18 51° WSW visible
27 Aug 4.5 23:32:26 10° N 23:35:27 21° ENE 23:36:45 18° E visible
